Time,TemperatureF,DewpointF,PressureIn,WindDirection,WindDirectionDegrees,WindSpeedMPH,WindSpeedGustMPH,Humidity,HourlyPrecipIn,Conditions,Clouds,dailyrainin,SolarRadiationWatts/m^2,SoftwareType,DateUTC
2013-10-11 00:02:00,54.0,41.7,29.88,ENE,76,0.0,0.0,63,0.00,,,0.00,0,WeatherCatV1.11B39,2013-10-11 07:02:00,
2013-10-11 00:07:00,53.9,41.6,29.88,ENE,76,0.0,0.0,63,0.00,,,0.00,0,WeatherCatV1.11B39,2013-10-11 07:07:00,
2013-10-11 00:12:00,53.6,41.7,29.88,ENE,76,0.0,0.0,64,0.00,,,0.00,0,WeatherCatV1.11B39,2013-10-11 07:12:00,
2013-10-11 00:17:00,53.4,41.1,29.88,ENE,76,0.0,0.0,63,0.00,,,0.00,0,WeatherCatV1.11B39,2013-10-11 07:17:00,
2013-10-11 00:22:00,53.2,41.3,29.89,ENE,76,0.0,0.0,64,0.00,,,0.00,0,WeatherCatV1.11B39,2013-10-11 07:22:00,
2013-10-11 00:27:00,53.0,41.2,29.89,ENE,76,0.0,0.0,64,0.00,,,0.00,0,WeatherCatV1.11B39,2013-10-11 07:27:00,
2013-10-11 00:32:00,52.8,41.4,29.89,ENE,76,0.0,1.0,65,0.00,,,0.00,0,WeatherCatV1.11B39,2013-10-11 07:32:00,
2013-10-11 00:37:00,52.5,41.5,29.89,ENE,76,0.0,0.0,66,0.00,,,0.00,0,WeatherCatV1.11B39,2013-10-11 07:37:00,
2013-10-11 00:42:00,52.3,41.3,29.89,ENE,76,0.0,0.0,66,0.00,,,0.00,0,WeatherCatV1.11B39,2013-10-11 07:42:00,
2013-10-11 00:47:00,52.2,41.2,29.89,ENE,76,0.0,0.0,66,0.00,,,0.00,0,WeatherCatV1.11B39,2013-10-11 07:47:00,
2013-10-11 00:52:00,51.9,41.3,29.89,ENE,76,0.0,0.0,67,0.00,,,0.00,0,WeatherCatV1.11B39,2013-10-11 07:52:00,
2013-10-11 00:57:00,51.7,41.5,29.89,ENE,76,1.0,1.0,68,0.00,,,0.00,0,WeatherCatV1.11B39,2013-10-11 07:57:00,
2013-10-11 01:02:00,51.6,41.4,29.89,ENE,76,0.0,0.0,68,0.00,,,0.00,0,WeatherCatV1.11B39,2013-10-11 08:02:00,
2013-10-11 01:07:00,51.5,41.3,29.89,ENE,76,0.0,0.0,68,0.00,,,0.00,0,WeatherCatV1.11B39,2013-10-11 08:07:00,
2013-10-11 01:12:00,51.4,41.6,29.90,ENE,76,0.0,1.0,69,0.00,,,0.00,0,WeatherCatV1.11B39,2013-10-11 08:12:00,
2013-10-11 01:17:00,51.3,41.5,29.90,ENE,76,0.0,0.0,69,0.00,,,0.00,0,WeatherCatV1.11B39,2013-10-11 08:17:00,
2013-10-11 01:22:00,51.2,41.4,29.90,ENE,76,0.0,0.0,69,0.00,,,0.00,0,WeatherCatV1.11B39,2013-10-11 08:22:00,
2013-10-11 01:27:00,51.0,41.2,29.90,ENE,76,0.0,0.0,69,0.00,,,0.00,0,WeatherCatV1.11B39,2013-10-11 08:27:00,
2013-10-11 01:32:00,50.9,41.1,29.90,ENE,76,0.0,0.0,69,0.00,,,0.00,0,WeatherCatV1.11B39,2013-10-11 08:32:00,
2013-10-11 01:37:00,50.8,41.0,29.90,ENE,76,0.0,0.0,69,0.00,,,0.00,0,WeatherCatV1.11B39,2013-10-11 08:37:00,
2013-10-11 01:42:00,50.7,41.3,29.90,ENE,76,0.0,0.0,70,0.00,,,0.00,0,WeatherCatV1.11B39,2013-10-11 08:42:00,
2013-10-11 01:47:00,50.5,41.1,29.90,ENE,76,0.0,0.0,70,0.00,,,0.00,0,WeatherCatV1.11B39,2013-10-11 08:47:00,
2013-10-11 01:52:00,50.4,41.0,29.90,ENE,76,1.0,1.0,70,0.00,,,0.00,0,WeatherCatV1.11B39,2013-10-11 08:52:00,
2013-10-11 01:57:00,50.3,40.9,29.90,ENE,76,1.0,2.0,70,0.00,,,0.00,0,WeatherCatV1.11B39,2013-10-11 08:57:00,
2013-10-11 02:02:00,50.2,40.8,29.90,ENE,76,0.0,0.0,70,0.00,,,0.00,0,WeatherCatV1.11B39,2013-10-11 09:02:00,
2013-10-11 02:07:00,50.1,40.7,29.90,ENE,76,0.0,0.0,70,0.00,,,0.00,0,WeatherCatV1.11B39,2013-10-11 09:07:00,
2013-10-11 02:12:00,50.0,40.6,29.90,ENE,76,0.0,0.0,70,0.00,,,0.00,0,WeatherCatV1.11B39,2013-10-11 09:12:00,
2013-10-11 02:17:00,49.9,40.5,29.90,ENE,76,0.0,0.0,70,0.00,,,0.00,0,WeatherCatV1.11B39,2013-10-11 09:17:00,
2013-10-11 02:22:00,49.7,40.3,29.91,ENE,76,0.0,0.0,70,0.00,,,0.00,0,WeatherCatV1.11B39,2013-10-11 09:22:00,
2013-10-11 02:27:00,49.5,40.5,29.91,ENE,76,0.0,0.0,71,0.00,,,0.00,0,WeatherCatV1.11B39,2013-10-11 09:27:00,
2013-10-11 02:32:00,49.3,40.7,29.91,ENE,76,1.0,2.0,72,0.00,,,0.00,0,WeatherCatV1.11B39,2013-10-11 09:32:00,
2013-10-11 02:37:00,49.1,40.5,29.91,ENE,76,1.0,2.0,72,0.00,,,0.00,0,WeatherCatV1.11B39,2013-10-11 09:37:00,
2013-10-11 02:42:00,49.0,40.7,29.90,ENE,76,0.0,1.0,73,0.00,,,0.00,0,WeatherCatV1.11B39,2013-10-11 09:42:00,
2013-10-11 02:47:00,48.8,40.5,29.91,ENE,76,0.0,1.0,73,0.00,,,0.00,0,WeatherCatV1.11B39,2013-10-11 09:47:00,
2013-10-11 02:52:00,48.7,40.8,29.91,ENE,76,0.0,1.0,74,0.00,,,0.00,0,WeatherCatV1.11B39,2013-10-11 09:52:00,
2013-10-11 02:57:00,48.6,40.7,29.91,ENE,76,0.0,0.0,74,0.00,,,0.00,0,WeatherCatV1.11B39,2013-10-11 09:57:00,
2013-10-11 03:02:00,48.5,40.6,29.91,ENE,76,0.0,1.0,74,0.00,,,0.00,0,WeatherCatV1.11B39,2013-10-11 10:02:00,
2013-10-11 03:07:00,48.5,40.6,29.91,ENE,76,0.0,1.0,74,0.00,,,0.00,0,WeatherCatV1.11B39,2013-10-11 10:07:00,
2013-10-11 03:12:00,48.4,40.8,29.91,ENE,76,0.0,1.0,75,0.00,,,0.00,0,WeatherCatV1.11B39,2013-10-11 10:12:00,
2013-10-11 03:17:00,48.3,40.7,29.91,ENE,76,0.0,0.0,75,0.00,,,0.00,0,WeatherCatV1.11B39,2013-10-11 10:17:00,
2013-10-11 03:22:00,48.2,40.7,29.91,ENE,76,0.0,0.0,75,0.00,,,0.00,0,WeatherCatV1.11B39,2013-10-11 10:22:00,
2013-10-11 03:28:00,48.1,40.9,29.91,ENE,76,0.0,0.0,76,0.00,,,0.00,0,WeatherCatV1.11B39,2013-10-11 10:28:00,
2013-10-11 03:33:00,48.1,40.9,29.91,ENE,76,0.0,0.0,76,0.00,,,0.00,0,WeatherCatV1.11B39,2013-10-11 10:33:00,
2013-10-11 03:38:00,48.0,40.8,29.91,ENE,76,0.0,0.0,76,0.00,,,0.00,0,WeatherCatV1.11B39,2013-10-11 10:38:00,
2013-10-11 03:43:00,47.9,40.7,29.91,ENE,76,0.0,0.0,76,0.00,,,0.00,0,WeatherCatV1.11B39,2013-10-11 10:43:00,
2013-10-11 03:48:00,47.8,40.6,29.91,ENE,76,0.0,0.0,76,0.00,,,0.00,0,WeatherCatV1.11B39,2013-10-11 10:48:00,
2013-10-11 03:53:00,47.7,40.8,29.91,ENE,76,0.0,1.0,77,0.00,,,0.00,0,WeatherCatV1.11B39,2013-10-11 10:53:00,
2013-10-11 03:58:00,47.6,40.8,29.91,ENE,76,0.0,1.0,77,0.00,,,0.00,0,WeatherCatV1.11B39,2013-10-11 10:58:00,
2013-10-11 04:03:00,47.6,40.8,29.91,ENE,76,0.0,0.0,77,0.00,,,0.00,0,WeatherCatV1.11B39,2013-10-11 11:03:00,
2013-10-11 04:08:00,47.5,40.7,29.91,ENE,76,0.0,0.0,77,0.00,,,0.00,0,WeatherCatV1.11B39,2013-10-11 11:08:00,
2013-10-11 04:13:00,47.4,40.6,29.91,ENE,76,0.0,0.0,77,0.00,,,0.00,0,WeatherCatV1.11B39,2013-10-11 11:13:00,
2013-10-11 04:18:00,47.4,40.6,29.91,ENE,76,0.0,1.0,77,0.00,,,0.00,0,WeatherCatV1.11B39,2013-10-11 11:18:00,
2013-10-11 04:23:00,47.4,40.6,29.92,ENE,76,0.0,0.0,77,0.00,,,0.00,0,WeatherCatV1.11B39,2013-10-11 11:23:00,
2013-10-11 04:28:00,47.3,40.5,29.92,ENE,76,0.0,0.0,77,0.00,,,0.00,0,WeatherCatV1.11B39,2013-10-11 11:28:00,
2013-10-11 04:33:00,47.2,40.4,29.92,ENE,76,0.0,0.0,77,0.00,,,0.00,0,WeatherCatV1.11B39,2013-10-11 11:33:00,
2013-10-11 04:38:00,47.1,40.3,29.92,ENE,76,0.0,1.0,77,0.00,,,0.00,0,WeatherCatV1.11B39,2013-10-11 11:38:00,
2013-10-11 04:43:00,47.0,40.2,29.92,ENE,76,0.0,0.0,77,0.00,,,0.00,0,WeatherCatV1.11B39,2013-10-11 11:43:00,
2013-10-11 04:48:00,46.9,40.4,29.92,ENE,76,0.0,0.0,78,0.00,,,0.00,0,WeatherCatV1.11B39,2013-10-11 11:48:00,
2013-10-11 04:53:00,46.9,40.4,29.92,ENE,76,0.0,0.0,78,0.00,,,0.00,0,WeatherCatV1.11B39,2013-10-11 11:53:00,
2013-10-11 04:58:00,46.8,40.3,29.92,ENE,76,0.0,1.0,78,0.00,,,0.00,0,WeatherCatV1.11B39,2013-10-11 11:58:00,
2013-10-11 05:03:00,46.8,40.3,29.92,ENE,76,0.0,0.0,78,0.00,,,0.00,0,WeatherCatV1.11B39,2013-10-11 12:03:00,
2013-10-11 05:08:00,46.8,40.3,29.92,ENE,76,0.0,0.0,78,0.00,,,0.00,0,WeatherCatV1.11B39,2013-10-11 12:08:00,
2013-10-11 05:13:00,46.7,40.2,29.92,ENE,76,0.0,0.0,78,0.00,,,0.00,0,WeatherCatV1.11B39,2013-10-11 12:13:00,
2013-10-11 05:18:00,46.7,40.2,29.92,ENE,76,0.0,0.0,78,0.00,,,0.00,0,WeatherCatV1.11B39,2013-10-11 12:18:00,
2013-10-11 05:23:00,46.6,40.1,29.92,ENE,76,0.0,0.0,78,0.00,,,0.00,0,WeatherCatV1.11B39,2013-10-11 12:23:00,
2013-10-11 05:28:00,46.5,40.0,29.93,ENE,76,0.0,0.0,78,0.00,,,0.00,0,WeatherCatV1.11B39,2013-10-11 12:28:00,
2013-10-11 05:33:00,46.4,39.9,29.93,ENE,76,0.0,0.0,78,0.00,,,0.00,0,WeatherCatV1.11B39,2013-10-11 12:33:00,
2013-10-11 05:38:00,46.3,39.8,29.93,ENE,76,0.0,0.0,78,0.00,,,0.00,0,WeatherCatV1.11B39,2013-10-11 12:38:00,
2013-10-11 05:43:00,46.2,39.7,29.93,ENE,76,1.0,1.0,78,0.00,,,0.00,0,WeatherCatV1.11B39,2013-10-11 12:43:00,
2013-10-11 05:48:00,46.1,39.6,29.94,ENE,76,0.0,1.0,78,0.00,,,0.00,0,WeatherCatV1.11B39,2013-10-11 12:48:00,
2013-10-11 05:53:00,46.0,39.9,29.94,ENE,76,0.0,1.0,79,0.00,,,0.00,0,WeatherCatV1.11B39,2013-10-11 12:53:00,
2013-10-11 05:58:00,45.9,39.8,29.94,ENE,76,0.0,0.0,79,0.00,,,0.00,0,WeatherCatV1.11B39,2013-10-11 12:58:00,
2013-10-11 06:03:00,45.8,39.7,29.93,ENE,76,0.0,0.0,79,0.00,,,0.00,0,WeatherCatV1.11B39,2013-10-11 13:03:00,
2013-10-11 06:08:00,45.8,40.0,29.94,ENE,76,0.0,0.0,80,0.00,,,0.00,0,WeatherCatV1.11B39,2013-10-11 13:08:00,
2013-10-11 06:13:00,45.6,39.8,29.94,ENE,76,0.0,0.0,80,0.00,,,0.00,0,WeatherCatV1.11B39,2013-10-11 13:13:00,
2013-10-11 06:18:00,45.6,39.8,29.93,ENE,76,0.0,0.0,80,0.00,,,0.00,0,WeatherCatV1.11B39,2013-10-11 13:18:00,
2013-10-11 06:23:00,45.5,39.7,29.94,ENE,76,0.0,0.0,80,0.00,,,0.00,5,WeatherCatV1.11B39,2013-10-11 13:23:00,
2013-10-11 06:28:00,45.4,39.9,29.94,ENE,76,0.0,0.0,81,0.00,,,0.00,7,WeatherCatV1.11B39,2013-10-11 13:28:00,
2013-10-11 06:33:00,45.4,39.9,29.94,ENE,76,0.0,1.0,81,0.00,,,0.00,11,WeatherCatV1.11B39,2013-10-11 13:33:00,
2013-10-11 06:38:00,45.3,40.1,29.94,ENE,76,0.0,0.0,82,0.00,,,0.00,14,WeatherCatV1.11B39,2013-10-11 13:38:00,
2013-10-11 06:43:00,45.4,40.2,29.94,ENE,76,0.0,0.0,82,0.00,,,0.00,16,WeatherCatV1.11B39,2013-10-11 13:43:00,
2013-10-11 06:48:00,45.4,40.2,29.94,ENE,76,0.0,0.0,82,0.00,,,0.00,23,WeatherCatV1.11B39,2013-10-11 13:48:00,
2013-10-11 06:53:00,45.5,40.3,29.94,ENE,76,0.0,0.0,82,0.00,,,0.00,42,WeatherCatV1.11B39,2013-10-11 13:53:00,
2013-10-11 06:58:00,45.8,40.6,29.94,ENE,76,0.0,0.0,82,0.00,,,0.00,56,WeatherCatV1.11B39,2013-10-11 13:58:00,
2013-10-11 07:03:00,46.5,41.3,29.95,ENE,76,0.0,1.0,82,0.00,,,0.00,69,WeatherCatV1.11B39,2013-10-11 14:03:00,
2013-10-11 07:08:00,47.1,41.9,29.95,ENE,76,0.0,0.0,82,0.00,,,0.00,84,WeatherCatV1.11B39,2013-10-11 14:08:00,
2013-10-11 07:13:00,47.7,42.2,29.95,ENE,76,1.0,1.0,81,0.00,,,0.00,98,WeatherCatV1.11B39,2013-10-11 14:13:00,
2013-10-11 07:18:00,48.6,42.7,29.95,ENE,76,0.0,0.0,80,0.00,,,0.00,114,WeatherCatV1.11B39,2013-10-11 14:18:00,
2013-10-11 07:23:00,49.2,43.0,29.94,ENE,76,0.0,0.0,79,0.00,,,0.00,137,WeatherCatV1.11B39,2013-10-11 14:23:00,
2013-10-11 07:28:00,50.1,43.8,29.95,ENE,76,0.0,0.0,79,0.00,,,0.00,155,WeatherCatV1.11B39,2013-10-11 14:28:00,
2013-10-11 07:33:00,50.9,43.9,29.95,ENE,76,0.0,0.0,77,0.00,,,0.00,169,WeatherCatV1.11B39,2013-10-11 14:33:00,
2013-10-11 07:38:00,51.7,44.4,29.95,ENE,76,1.0,1.0,76,0.00,,,0.00,188,WeatherCatV1.11B39,2013-10-11 14:38:00,
2013-10-11 07:43:00,52.7,44.6,29.95,ENE,76,0.0,1.0,74,0.00,,,0.00,204,WeatherCatV1.11B39,2013-10-11 14:43:00,
2013-10-11 07:48:00,53.6,44.8,29.95,ENE,76,0.0,1.0,72,0.00,,,0.00,218,WeatherCatV1.11B39,2013-10-11 14:48:00,
2013-10-11 07:53:00,54.4,44.4,29.95,ENE,76,0.0,1.0,69,0.00,,,0.00,237,WeatherCatV1.11B39,2013-10-11 14:53:00,
2013-10-11 07:58:00,55.2,44.8,29.96,ENE,76,0.0,1.0,68,0.00,,,0.00,253,WeatherCatV1.11B39,2013-10-11 14:58:00,
2013-10-11 08:03:00,55.9,44.7,29.96,ENE,76,0.0,1.0,66,0.00,,,0.00,271,WeatherCatV1.11B39,2013-10-11 15:03:00,
2013-10-11 08:08:00,56.7,44.7,29.96,ENE,76,1.0,1.0,64,0.00,,,0.00,288,WeatherCatV1.11B39,2013-10-11 15:08:00,
2013-10-11 08:13:00,57.4,44.5,29.96,ENE,76,0.0,2.0,62,0.00,,,0.00,306,WeatherCatV1.11B39,2013-10-11 15:13:00,
2013-10-11 08:18:00,58.0,44.6,29.96,ENE,74,0.0,1.0,61,0.00,,,0.00,322,WeatherCatV1.11B39,2013-10-11 15:18:00,
2013-10-11 08:23:00,58.5,44.7,29.96,SE,138,0.0,4.0,60,0.00,,,0.00,339,WeatherCatV1.11B39,2013-10-11 15:23:00,
2013-10-11 08:28:00,59.1,44.8,29.96,SE,139,1.0,1.0,59,0.00,,,0.00,353,WeatherCatV1.11B39,2013-10-11 15:28:00,
2013-10-11 08:33:00,59.6,44.8,29.96,SSW,193,3.0,3.0,58,0.00,,,0.00,369,WeatherCatV1.11B39,2013-10-11 15:33:00,
2013-10-11 08:38:00,60.0,44.7,29.96,WNW,292,2.0,5.0,57,0.00,,,0.00,388,WeatherCatV1.11B39,2013-10-11 15:38:00,
2013-10-11 08:43:00,60.4,44.6,29.96,West,265,0.0,3.0,56,0.00,,,0.00,404,WeatherCatV1.11B39,2013-10-11 15:43:00,
2013-10-11 08:48:00,60.8,45.0,29.96,SW,230,5.0,5.0,56,0.00,,,0.00,418,WeatherCatV1.11B39,2013-10-11 15:48:00,
2013-10-11 08:53:00,61.5,44.7,29.96,West,268,1.0,5.0,54,0.00,,,0.00,436,WeatherCatV1.11B39,2013-10-11 15:53:00,
2013-10-11 08:58:00,62.0,45.2,29.96,West,265,0.0,4.0,54,0.00,,,0.00,450,WeatherCatV1.11B39,2013-10-11 15:58:00,
2013-10-11 09:03:00,62.5,45.1,29.96,WSW,247,1.0,4.0,53,0.00,,,0.00,462,WeatherCatV1.11B39,2013-10-11 16:03:00,
2013-10-11 09:08:00,63.0,45.6,29.96,WSW,247,1.0,4.0,53,0.00,,,0.00,478,WeatherCatV1.11B39,2013-10-11 16:08:00,
2013-10-11 09:13:00,63.5,45.0,29.96,West,265,1.0,5.0,51,0.00,,,0.00,492,WeatherCatV1.11B39,2013-10-11 16:13:00,
2013-10-11 09:18:00,63.9,45.4,29.96,West,267,4.0,6.0,51,0.00,,,0.00,506,WeatherCatV1.11B39,2013-10-11 16:18:00,
2013-10-11 09:23:00,64.1,45.6,29.96,West,265,2.0,3.0,51,0.00,,,0.00,522,WeatherCatV1.11B39,2013-10-11 16:23:00,
2013-10-11 09:28:00,64.4,45.3,29.96,West,267,0.0,1.0,50,0.00,,,0.00,534,WeatherCatV1.11B39,2013-10-11 16:28:00,
2013-10-11 09:33:00,64.8,45.7,29.96,WNW,283,4.0,5.0,50,0.00,,,0.00,547,WeatherCatV1.11B39,2013-10-11 16:33:00,
2013-10-11 09:38:00,65.0,45.4,29.96,WNW,300,1.0,4.0,49,0.00,,,0.00,561,WeatherCatV1.11B39,2013-10-11 16:38:00,
2013-10-11 09:43:00,65.6,45.4,29.96,SW,227,3.0,4.0,48,0.00,,,0.00,575,WeatherCatV1.11B39,2013-10-11 16:43:00,
2013-10-11 09:48:00,65.9,45.1,29.96,West,259,2.0,5.0,47,0.00,,,0.00,585,WeatherCatV1.11B39,2013-10-11 16:48:00,
2013-10-11 09:53:00,66.1,45.3,29.96,NW,307,5.0,5.0,47,0.00,,,0.00,599,WeatherCatV1.11B39,2013-10-11 16:53:00,
2013-10-11 09:58:00,66.6,45.2,29.96,West,269,5.0,7.0,46,0.00,,,0.00,610,WeatherCatV1.11B39,2013-10-11 16:58:00,
2013-10-11 10:03:00,66.8,45.3,29.96,NW,309,3.0,7.0,46,0.00,,,0.00,621,WeatherCatV1.11B39,2013-10-11 17:03:00,
2013-10-11 10:08:00,67.0,45.0,29.96,WNW,284,2.0,5.0,45,0.00,,,0.00,631,WeatherCatV1.11B39,2013-10-11 17:08:00,
2013-10-11 10:13:00,67.3,45.2,29.96,WSW,252,3.0,7.0,45,0.00,,,0.00,643,WeatherCatV1.11B39,2013-10-11 17:13:00,
2013-10-11 10:18:00,67.7,45.6,29.96,SW,223,2.0,5.0,45,0.00,,,0.00,652,WeatherCatV1.11B39,2013-10-11 17:18:00,
2013-10-11 10:23:00,68.5,45.1,29.96,West,278,4.0,8.0,43,0.00,,,0.00,664,WeatherCatV1.11B39,2013-10-11 17:23:00,
2013-10-11 10:28:00,69.0,45.6,29.96,South,177,7.0,7.0,43,0.00,,,0.00,675,WeatherCatV1.11B39,2013-10-11 17:28:00,
2013-10-11 10:33:00,69.5,45.4,29.95,NNW,328,3.0,6.0,42,0.00,,,0.00,682,WeatherCatV1.11B39,2013-10-11 17:33:00,
2013-10-11 10:38:00,69.3,45.2,29.95,West,263,1.0,2.0,42,0.00,,,0.00,691,WeatherCatV1.11B39,2013-10-11 17:38:00,
2013-10-11 10:43:00,69.5,45.4,29.95,WNW,288,3.0,8.0,42,0.00,,,0.00,701,WeatherCatV1.11B39,2013-10-11 17:43:00,
2013-10-11 10:48:00,69.5,45.4,29.95,South,177,6.0,6.0,42,0.00,,,0.00,707,WeatherCatV1.11B39,2013-10-11 17:48:00,
2013-10-11 10:53:00,70.2,44.7,29.95,SW,226,1.0,9.0,40,0.00,,,0.00,714,WeatherCatV1.11B39,2013-10-11 17:53:00,
2013-10-11 10:58:00,70.8,45.3,29.95,South,190,2.0,5.0,40,0.00,,,0.00,721,WeatherCatV1.11B39,2013-10-11 17:58:00,
2013-10-11 11:03:00,71.2,45.6,29.95,South,182,3.0,7.0,40,0.00,,,0.00,722,WeatherCatV1.11B39,2013-10-11 18:03:00,
2013-10-11 11:08:00,71.4,45.1,29.95,SSW,204,2.0,4.0,39,0.00,,,0.00,731,WeatherCatV1.11B39,2013-10-11 18:08:00,
2013-10-11 11:13:00,71.2,45.0,29.95,SW,217,3.0,7.0,39,0.00,,,0.00,737,WeatherCatV1.11B39,2013-10-11 18:13:00,
2013-10-11 11:18:00,71.1,44.9,29.94,WNW,285,1.0,4.0,39,0.00,,,0.00,745,WeatherCatV1.11B39,2013-10-11 18:18:00,
2013-10-11 11:23:00,71.5,45.2,29.94,SW,222,5.0,7.0,39,0.00,,,0.00,749,WeatherCatV1.11B39,2013-10-11 18:23:00,
2013-10-11 11:28:00,72.1,45.1,29.94,SW,226,6.0,10.0,38,0.00,,,0.00,752,WeatherCatV1.11B39,2013-10-11 18:28:00,
2013-10-11 11:33:00,72.6,45.5,29.94,SW,228,2.0,4.0,38,0.00,,,0.00,756,WeatherCatV1.11B39,2013-10-11 18:33:00,
2013-10-11 11:38:00,72.7,44.9,29.93,South,179,2.0,6.0,37,0.00,,,0.00,761,WeatherCatV1.11B39,2013-10-11 18:38:00,
2013-10-11 11:43:00,72.3,44.6,29.93,WSW,247,1.0,6.0,37,0.00,,,0.00,765,WeatherCatV1.11B39,2013-10-11 18:43:00,
2013-10-11 11:48:00,72.7,44.9,29.93,WSW,255,10.0,10.0,37,0.00,,,0.00,766,WeatherCatV1.11B39,2013-10-11 18:48:00,
2013-10-11 11:53:00,72.6,43.4,29.93,WSW,256,1.0,4.0,35,0.00,,,0.00,768,WeatherCatV1.11B39,2013-10-11 18:53:00,
2013-10-11 11:58:00,73.7,45.8,29.93,West,273,4.0,7.0,37,0.00,,,0.00,768,WeatherCatV1.11B39,2013-10-11 18:58:00,
2013-10-11 12:03:00,73.2,44.6,29.92,SSW,198,4.0,7.0,36,0.00,,,0.00,770,WeatherCatV1.11B39,2013-10-11 19:03:00,
2013-10-11 12:08:00,73.4,44.1,29.92,WNW,302,2.0,5.0,35,0.00,,,0.00,770,WeatherCatV1.11B39,2013-10-11 19:08:00,
2013-10-11 12:13:00,73.7,44.3,29.92,SW,233,6.0,8.0,35,0.00,,,0.00,772,WeatherCatV1.11B39,2013-10-11 19:13:00,
2013-10-11 12:18:00,73.5,44.2,29.92,SW,224,5.0,6.0,35,0.00,,,0.00,773,WeatherCatV1.11B39,2013-10-11 19:18:00,
2013-10-11 12:23:00,73.7,44.3,29.92,WSW,240,4.0,6.0,35,0.00,,,0.00,773,WeatherCatV1.11B39,2013-10-11 19:23:00,
2013-10-11 12:28:00,74.1,43.9,29.91,West,264,5.0,5.0,34,0.00,,,0.00,773,WeatherCatV1.11B39,2013-10-11 19:28:00,
2013-10-11 12:33:00,73.2,43.9,29.91,West,265,0.0,1.0,35,0.00,,,0.00,770,WeatherCatV1.11B39,2013-10-11 19:33:00,
2013-10-11 12:38:00,74.2,44.8,29.91,NNW,337,6.0,6.0,35,0.00,,,0.00,768,WeatherCatV1.11B39,2013-10-11 19:38:00,
2013-10-11 12:43:00,74.3,44.1,29.90,WSW,245,6.0,9.0,34,0.00,,,0.00,765,WeatherCatV1.11B39,2013-10-11 19:43:00,
2013-10-11 12:48:00,74.5,43.5,29.90,NW,304,3.0,4.0,33,0.00,,,0.00,761,WeatherCatV1.11B39,2013-10-11 19:48:00,
2013-10-11 12:53:00,74.0,43.8,29.90,West,265,3.0,6.0,34,0.00,,,0.00,759,WeatherCatV1.11B39,2013-10-11 19:53:00,
2013-10-11 12:58:00,74.6,44.4,29.90,SSW,209,4.0,6.0,34,0.00,,,0.00,758,WeatherCatV1.11B39,2013-10-11 19:58:00,
2013-10-11 13:03:00,74.9,43.8,29.90,South,172,2.0,5.0,33,0.00,,,0.00,749,WeatherCatV1.11B39,2013-10-11 20:03:00,
2013-10-11 13:08:00,74.5,43.5,29.90,South,182,2.0,3.0,33,0.00,,,0.00,747,WeatherCatV1.11B39,2013-10-11 20:08:00,
2013-10-11 13:13:00,74.2,43.2,29.89,South,176,1.0,2.0,33,0.00,,,0.00,744,WeatherCatV1.11B39,2013-10-11 20:13:00,
2013-10-11 13:18:00,75.1,44.0,29.89,SW,232,3.0,7.0,33,0.00,,,0.00,740,WeatherCatV1.11B39,2013-10-11 20:18:00,
2013-10-11 13:23:00,74.6,43.6,29.89,WNW,296,5.0,7.0,33,0.00,,,0.00,735,WeatherCatV1.11B39,2013-10-11 20:23:00,
2013-10-11 13:28:00,74.6,43.6,29.89,West,272,9.0,9.0,33,0.00,,,0.00,728,WeatherCatV1.11B39,2013-10-11 20:28:00,
2013-10-11 13:33:00,74.6,43.6,29.89,WSW,255,4.0,6.0,33,0.00,,,0.00,721,WeatherCatV1.11B39,2013-10-11 20:33:00,
2013-10-11 13:38:00,75.1,44.0,29.89,WSW,255,1.0,3.0,33,0.00,,,0.00,712,WeatherCatV1.11B39,2013-10-11 20:38:00,
2013-10-11 13:43:00,73.9,43.0,29.89,SSE,159,4.0,5.0,33,0.00,,,0.00,708,WeatherCatV1.11B39,2013-10-11 20:43:00,
2013-10-11 13:48:00,74.8,43.8,29.89,SW,234,7.0,9.0,33,0.00,,,0.00,700,WeatherCatV1.11B39,2013-10-11 20:48:00,
2013-10-11 13:53:00,75.5,43.6,29.88,SSW,200,1.0,4.0,32,0.00,,,0.00,686,WeatherCatV1.11B39,2013-10-11 20:53:00,
2013-10-11 13:58:00,76.0,44.0,29.88,North,0,5.0,6.0,32,0.00,,,0.00,680,WeatherCatV1.11B39,2013-10-11 20:58:00,
2013-10-11 14:03:00,76.2,43.3,29.88,SW,227,6.0,16.0,31,0.00,,,0.00,670,WeatherCatV1.11B39,2013-10-11 21:03:00,
2013-10-11 14:08:00,76.5,42.7,29.88,SW,222,4.0,10.0,30,0.00,,,0.00,663,WeatherCatV1.11B39,2013-10-11 21:08:00,
2013-10-11 14:13:00,75.9,43.1,29.88,West,269,7.0,7.0,31,0.00,,,0.00,650,WeatherCatV1.11B39,2013-10-11 21:13:00,
2013-10-11 14:18:00,76.1,43.2,29.88,WSW,246,2.0,5.0,31,0.00,,,0.00,635,WeatherCatV1.11B39,2013-10-11 21:18:00,
2013-10-11 14:23:00,76.0,42.3,29.88,West,269,4.0,8.0,30,0.00,,,0.00,629,WeatherCatV1.11B39,2013-10-11 21:23:00,
2013-10-11 14:28:00,76.4,42.7,29.88,West,269,2.0,6.0,30,0.00,,,0.00,615,WeatherCatV1.11B39,2013-10-11 21:28:00,
2013-10-11 14:33:00,76.0,42.3,29.88,West,281,5.0,5.0,30,0.00,,,0.00,606,WeatherCatV1.11B39,2013-10-11 21:33:00,
2013-10-11 14:38:00,75.8,40.4,29.88,NW,318,1.0,7.0,28,0.00,,,0.00,596,WeatherCatV1.11B39,2013-10-11 21:38:00,
2013-10-11 14:43:00,75.5,41.0,29.88,NW,311,7.0,7.0,29,0.00,,,0.00,582,WeatherCatV1.11B39,2013-10-11 21:43:00,
2013-10-11 14:48:00,76.1,42.4,29.87,West,277,7.0,9.0,30,0.00,,,0.00,568,WeatherCatV1.11B39,2013-10-11 21:48:00,
2013-10-11 14:53:00,76.6,41.9,29.88,South,185,5.0,8.0,29,0.00,,,0.00,559,WeatherCatV1.11B39,2013-10-11 21:53:00,
2013-10-11 14:58:00,76.9,43.1,29.88,SW,222,7.0,7.0,30,0.00,,,0.00,543,WeatherCatV1.11B39,2013-10-11 21:58:00,
2013-10-11 15:03:00,77.1,41.5,29.88,West,274,6.0,9.0,28,0.00,,,0.00,527,WeatherCatV1.11B39,2013-10-11 22:03:00,
2013-10-11 15:08:00,76.6,41.9,29.87,SW,228,6.0,7.0,29,0.00,,,0.00,513,WeatherCatV1.11B39,2013-10-11 22:08:00,
2013-10-11 15:13:00,77.1,41.5,29.87,WSW,252,4.0,9.0,28,0.00,,,0.00,499,WeatherCatV1.11B39,2013-10-11 22:13:00,
2013-10-11 15:18:00,76.8,41.2,29.87,WSW,247,9.0,10.0,28,0.00,,,0.00,487,WeatherCatV1.11B39,2013-10-11 22:18:00,
2013-10-11 15:23:00,77.1,41.5,29.87,SW,228,6.0,9.0,28,0.00,,,0.00,471,WeatherCatV1.11B39,2013-10-11 22:23:00,
2013-10-11 15:28:00,76.6,40.1,29.87,SW,228,7.0,9.0,27,0.00,,,0.00,455,WeatherCatV1.11B39,2013-10-11 22:28:00,
2013-10-11 15:33:00,76.8,39.3,29.87,NW,315,6.0,8.0,26,0.00,,,0.00,439,WeatherCatV1.11B39,2013-10-11 22:33:00,
2013-10-11 15:38:00,75.8,37.5,29.87,NW,309,4.0,8.0,25,0.00,,,0.00,424,WeatherCatV1.11B39,2013-10-11 22:38:00,
2013-10-11 15:43:00,75.3,38.0,29.87,NW,313,3.0,4.0,26,0.00,,,0.00,410,WeatherCatV1.11B39,2013-10-11 22:43:00,
2013-10-11 15:48:00,76.6,38.1,29.87,WSW,249,7.0,9.0,25,0.00,,,0.00,392,WeatherCatV1.11B39,2013-10-11 22:48:00,
2013-10-11 15:53:00,76.4,39.0,29.87,West,266,2.0,7.0,26,0.00,,,0.00,378,WeatherCatV1.11B39,2013-10-11 22:53:00,
2013-10-11 15:58:00,76.2,37.8,29.87,West,262,3.0,5.0,25,0.00,,,0.00,362,WeatherCatV1.11B39,2013-10-11 22:58:00,
2013-10-11 16:03:00,76.2,37.8,29.87,SW,223,3.0,8.0,25,0.00,,,0.00,341,WeatherCatV1.11B39,2013-10-11 23:03:00,
2013-10-11 16:08:00,76.6,38.1,29.86,West,261,2.0,8.0,25,0.00,,,0.00,325,WeatherCatV1.11B39,2013-10-11 23:08:00,
2013-10-11 16:13:00,76.1,37.7,29.86,WNW,284,4.0,8.0,25,0.00,,,0.00,309,WeatherCatV1.11B39,2013-10-11 23:13:00,
2013-10-11 16:18:00,76.2,38.8,29.87,WSW,255,2.0,7.0,26,0.00,,,0.00,290,WeatherCatV1.11B39,2013-10-11 23:18:00,
2013-10-11 16:23:00,76.2,38.8,29.86,West,269,4.0,8.0,26,0.00,,,0.00,274,WeatherCatV1.11B39,2013-10-11 23:23:00,
2013-10-11 16:28:00,75.8,38.5,29.86,WSW,253,4.0,6.0,26,0.00,,,0.00,258,WeatherCatV1.11B39,2013-10-11 23:28:00,
2013-10-11 16:33:00,75.5,38.2,29.86,West,272,3.0,9.0,26,0.00,,,0.00,239,WeatherCatV1.11B39,2013-10-11 23:33:00,
2013-10-11 16:38:00,75.2,38.9,29.86,West,268,5.0,10.0,27,0.00,,,0.00,220,WeatherCatV1.11B39,2013-10-11 23:38:00,
2013-10-11 16:43:00,75.1,38.8,29.86,West,274,4.0,8.0,27,0.00,,,0.00,200,WeatherCatV1.11B39,2013-10-11 23:43:00,
2013-10-11 16:48:00,75.2,38.9,29.86,WSW,245,7.0,7.0,27,0.00,,,0.00,176,WeatherCatV1.11B39,2013-10-11 23:48:00,
2013-10-11 16:53:00,75.2,38.9,29.86,SW,234,3.0,6.0,27,0.00,,,0.00,156,WeatherCatV1.11B39,2013-10-11 23:53:00,
2013-10-11 16:58:00,74.7,38.5,29.86,West,260,2.0,3.0,27,0.00,,,0.00,137,WeatherCatV1.11B39,2013-10-11 23:58:00,
2013-10-11 17:03:00,74.5,38.3,29.86,West,274,5.0,6.0,27,0.00,,,0.00,114,WeatherCatV1.11B39,2013-10-12 00:03:00,
2013-10-11 17:08:00,74.1,38.0,29.86,SW,228,4.0,7.0,27,0.00,,,0.00,97,WeatherCatV1.11B39,2013-10-12 00:08:00,
2013-10-11 17:13:00,74.0,38.8,29.86,WSW,257,5.0,9.0,28,0.00,,,0.00,79,WeatherCatV1.11B39,2013-10-12 00:13:00,
2013-10-11 17:18:00,73.8,38.6,29.86,West,277,4.0,8.0,28,0.00,,,0.00,62,WeatherCatV1.11B39,2013-10-12 00:18:00,
2013-10-11 17:23:00,73.4,38.3,29.86,West,278,1.0,5.0,28,0.00,,,0.00,49,WeatherCatV1.11B39,2013-10-12 00:23:00,
2013-10-11 17:28:00,73.1,38.9,29.86,WNW,286,4.0,7.0,29,0.00,,,0.00,37,WeatherCatV1.11B39,2013-10-12 00:28:00,
2013-10-11 17:33:00,72.8,38.7,29.85,West,265,5.0,9.0,29,0.00,,,0.00,25,WeatherCatV1.11B39,2013-10-12 00:33:00,
2013-10-11 17:38:00,72.4,38.3,29.85,West,280,5.0,7.0,29,0.00,,,0.00,18,WeatherCatV1.11B39,2013-10-12 00:38:00,
2013-10-11 17:43:00,72.0,38.9,29.86,West,276,5.0,7.0,30,0.00,,,0.00,12,WeatherCatV1.11B39,2013-10-12 00:43:00,
2013-10-11 17:48:00,71.6,38.5,29.86,WNW,292,3.0,6.0,30,0.00,,,0.00,9,WeatherCatV1.11B39,2013-10-12 00:48:00,
2013-10-11 17:53:00,71.1,38.9,29.86,West,281,1.0,4.0,31,0.00,,,0.00,7,WeatherCatV1.11B39,2013-10-12 00:53:00,
2013-10-11 17:58:00,70.6,38.5,29.86,WNW,285,2.0,5.0,31,0.00,,,0.00,0,WeatherCatV1.11B39,2013-10-12 00:58:00,
2013-10-11 18:03:00,70.3,38.2,29.86,West,269,3.0,5.0,31,0.00,,,0.00,0,WeatherCatV1.11B39,2013-10-12 01:03:00,
2013-10-11 18:08:00,69.9,38.7,29.86,West,277,4.0,5.0,32,0.00,,,0.00,0,WeatherCatV1.11B39,2013-10-12 01:08:00,
2013-10-11 18:13:00,69.4,38.3,29.86,West,278,1.0,4.0,32,0.00,,,0.00,0,WeatherCatV1.11B39,2013-10-12 01:13:00,
2013-10-11 18:18:00,68.9,38.6,29.86,West,278,0.0,1.0,33,0.00,,,0.00,0,WeatherCatV1.11B39,2013-10-12 01:18:00,
2013-10-11 18:23:00,68.4,38.2,29.86,West,278,0.0,1.0,33,0.00,,,0.00,0,WeatherCatV1.11B39,2013-10-12 01:23:00,
2013-10-11 18:28:00,67.6,38.2,29.86,West,278,0.0,0.0,34,0.00,,,0.00,0,WeatherCatV1.11B39,2013-10-12 01:28:00,
2013-10-11 18:33:00,67.1,38.5,29.86,West,278,1.0,3.0,35,0.00,,,0.00,0,WeatherCatV1.11B39,2013-10-12 01:33:00,
2013-10-11 18:38:00,66.5,38.0,29.86,West,278,0.0,1.0,35,0.00,,,0.00,0,WeatherCatV1.11B39,2013-10-12 01:38:00,
2013-10-11 18:43:00,66.0,38.3,29.86,West,278,0.0,0.0,36,0.00,,,0.00,0,WeatherCatV1.11B39,2013-10-12 01:43:00,
2013-10-11 18:48:00,65.6,37.9,29.86,West,278,0.0,0.0,36,0.00,,,0.00,0,WeatherCatV1.11B39,2013-10-12 01:48:00,
2013-10-11 18:53:00,65.2,38.3,29.86,West,278,0.0,0.0,37,0.00,,,0.00,0,WeatherCatV1.11B39,2013-10-12 01:53:00,
2013-10-11 18:58:00,64.9,38.0,29.86,West,278,0.0,0.0,37,0.00,,,0.00,0,WeatherCatV1.11B39,2013-10-12 01:58:00,
2013-10-11 19:03:00,64.3,38.1,29.86,West,278,0.0,0.0,38,0.00,,,0.00,0,WeatherCatV1.11B39,2013-10-12 02:03:00,
2013-10-11 19:08:00,63.5,38.1,29.86,West,278,0.0,0.0,39,0.00,,,0.00,0,WeatherCatV1.11B39,2013-10-12 02:08:00,
2013-10-11 19:13:00,62.9,37.6,29.86,West,278,0.0,0.0,39,0.00,,,0.00,0,WeatherCatV1.11B39,2013-10-12 02:13:00,
2013-10-11 19:18:00,62.8,38.1,29.87,West,278,0.0,1.0,40,0.00,,,0.00,0,WeatherCatV1.11B39,2013-10-12 02:18:00,
2013-10-11 19:23:00,62.7,38.0,29.86,West,278,0.0,1.0,40,0.00,,,0.00,0,WeatherCatV1.11B39,2013-10-12 02:23:00,
2013-10-11 19:28:00,62.5,37.8,29.86,West,278,0.0,1.0,40,0.00,,,0.00,0,WeatherCatV1.11B39,2013-10-12 02:28:00,
2013-10-11 19:33:00,62.5,37.8,29.86,West,278,1.0,1.0,40,0.00,,,0.00,0,WeatherCatV1.11B39,2013-10-12 02:33:00,
2013-10-11 19:38:00,62.2,38.2,29.87,West,278,0.0,1.0,41,0.00,,,0.00,0,WeatherCatV1.11B39,2013-10-12 02:38:00,
2013-10-11 19:43:00,62.0,38.0,29.87,West,278,0.0,1.0,41,0.00,,,0.00,0,WeatherCatV1.11B39,2013-10-12 02:43:00,
2013-10-11 19:48:00,61.4,38.1,29.87,West,279,0.0,2.0,42,0.00,,,0.00,0,WeatherCatV1.11B39,2013-10-12 02:48:00,
2013-10-11 19:53:00,61.3,38.0,29.87,West,280,1.0,2.0,42,0.00,,,0.00,0,WeatherCatV1.11B39,2013-10-12 02:53:00,
2013-10-11 19:58:00,61.3,38.0,29.87,WNW,282,1.0,3.0,42,0.00,,,0.00,0,WeatherCatV1.11B39,2013-10-12 02:58:00,
2013-10-11 20:03:00,61.4,38.1,29.87,WNW,282,1.0,1.0,42,0.00,,,0.00,0,WeatherCatV1.11B39,2013-10-12 03:03:00,
2013-10-11 20:08:00,61.4,37.5,29.87,WNW,282,0.0,1.0,41,0.00,,,0.00,0,WeatherCatV1.11B39,2013-10-12 03:08:00,
2013-10-11 20:13:00,61.1,37.8,29.87,WNW,282,0.0,0.0,42,0.00,,,0.00,0,WeatherCatV1.11B39,2013-10-12 03:13:00,
2013-10-11 20:18:00,61.1,37.8,29.87,WNW,282,1.0,1.0,42,0.00,,,0.00,0,WeatherCatV1.11B39,2013-10-12 03:18:00,
2013-10-11 20:23:00,61.0,37.7,29.88,WNW,282,1.0,2.0,42,0.00,,,0.00,0,WeatherCatV1.11B39,2013-10-12 03:23:00,
2013-10-11 20:28:00,61.1,37.8,29.87,WNW,282,0.0,1.0,42,0.00,,,0.00,0,WeatherCatV1.11B39,2013-10-12 03:28:00,
2013-10-11 20:33:00,60.8,37.6,29.88,WNW,282,0.0,1.0,42,0.00,,,0.00,0,WeatherCatV1.11B39,2013-10-12 03:33:00,
2013-10-11 20:38:00,60.5,37.9,29.88,WNW,282,0.0,1.0,43,0.00,,,0.00,0,WeatherCatV1.11B39,2013-10-12 03:38:00,
2013-10-11 20:43:00,59.9,37.3,29.88,WNW,282,0.0,1.0,43,0.00,,,0.00,0,WeatherCatV1.11B39,2013-10-12 03:43:00,
2013-10-11 20:48:00,59.6,37.7,29.88,WNW,282,2.0,2.0,44,0.00,,,0.00,0,WeatherCatV1.11B39,2013-10-12 03:48:00,
2013-10-11 20:53:00,59.3,37.4,29.88,WNW,282,0.0,2.0,44,0.00,,,0.00,0,WeatherCatV1.11B39,2013-10-12 03:53:00,
2013-10-11 20:58:00,59.0,37.7,29.88,WNW,282,1.0,2.0,45,0.00,,,0.00,0,WeatherCatV1.11B39,2013-10-12 03:58:00,
2013-10-11 21:01:00,59.0,37.7,29.88,WNW,282,0.0,1.0,45,0.00,,,0.00,0,WeatherCatV1.11B39,2013-10-12 04:01:00,
2013-10-11 21:06:00,59.1,37.2,29.88,WNW,282,0.0,1.0,44,0.00,,,0.00,0,WeatherCatV1.11B39,2013-10-12 04:06:00,
2013-10-11 21:11:00,59.0,37.1,29.88,WNW,282,0.0,0.0,44,0.00,,,0.00,0,WeatherCatV1.11B39,2013-10-12 04:11:00,
2013-10-11 21:16:00,58.7,37.4,29.89,WNW,282,0.0,1.0,45,0.00,,,0.00,0,WeatherCatV1.11B39,2013-10-12 04:16:00,
2013-10-11 21:21:00,58.5,37.2,29.89,WNW,282,0.0,1.0,45,0.00,,,0.00,0,WeatherCatV1.11B39,2013-10-12 04:21:00,
2013-10-11 21:26:00,58.7,37.4,29.89,WNW,283,0.0,1.0,45,0.00,,,0.00,0,WeatherCatV1.11B39,2013-10-12 04:26:00,
2013-10-11 21:31:00,58.3,37.6,29.89,WNW,284,2.0,2.0,46,0.00,,,0.00,0,WeatherCatV1.11B39,2013-10-12 04:31:00,
2013-10-11 21:36:00,58.1,37.4,29.90,WNW,284,1.0,1.0,46,0.00,,,0.00,0,WeatherCatV1.11B39,2013-10-12 04:36:00,
2013-10-11 21:41:00,58.2,37.5,29.90,WNW,284,1.0,1.0,46,0.00,,,0.00,0,WeatherCatV1.11B39,2013-10-12 04:41:00,
2013-10-11 21:46:00,58.1,37.4,29.90,WNW,284,2.0,2.0,46,0.00,,,0.00,0,WeatherCatV1.11B39,2013-10-12 04:46:00,
2013-10-11 21:51:00,58.1,37.4,29.90,WNW,284,0.0,1.0,46,0.00,,,0.00,0,WeatherCatV1.11B39,2013-10-12 04:51:00,
2013-10-11 21:56:00,58.1,37.4,29.90,WNW,284,0.0,1.0,46,0.00,,,0.00,0,WeatherCatV1.11B39,2013-10-12 04:56:00,
2013-10-11 22:01:00,57.8,37.2,29.90,WNW,284,0.0,1.0,46,0.00,,,0.00,0,WeatherCatV1.11B39,2013-10-12 05:01:00,
2013-10-11 22:06:00,57.5,36.9,29.90,WNW,284,0.0,1.0,46,0.00,,,0.00,0,WeatherCatV1.11B39,2013-10-12 05:06:00,
2013-10-11 22:11:00,57.3,36.7,29.90,WNW,284,0.0,0.0,46,0.00,,,0.00,0,WeatherCatV1.11B39,2013-10-12 05:11:00,
2013-10-11 22:16:00,56.8,36.8,29.90,WNW,284,0.0,0.0,47,0.00,,,0.00,0,WeatherCatV1.11B39,2013-10-12 05:16:00,
2013-10-11 22:21:00,56.5,36.5,29.90,WNW,284,0.0,1.0,47,0.00,,,0.00,0,WeatherCatV1.11B39,2013-10-12 05:21:00,
2013-10-11 22:26:00,55.9,36.5,29.90,WNW,284,0.0,1.0,48,0.00,,,0.00,0,WeatherCatV1.11B39,2013-10-12 05:26:00,
2013-10-11 22:31:00,55.6,36.7,29.91,WNW,284,0.0,1.0,49,0.00,,,0.00,0,WeatherCatV1.11B39,2013-10-12 05:31:00,
2013-10-11 22:36:00,55.5,36.7,29.90,WNW,284,0.0,0.0,49,0.00,,,0.00,0,WeatherCatV1.11B39,2013-10-12 05:36:00,
2013-10-11 22:41:00,55.5,36.7,29.91,WNW,284,0.0,0.0,49,0.00,,,0.00,0,WeatherCatV1.11B39,2013-10-12 05:41:00,
2013-10-11 22:46:00,55.3,37.0,29.91,WNW,284,0.0,1.0,50,0.00,,,0.00,0,WeatherCatV1.11B39,2013-10-12 05:46:00,
2013-10-11 22:51:00,55.1,36.8,29.90,WNW,284,0.0,0.0,50,0.00,,,0.00,0,WeatherCatV1.11B39,2013-10-12 05:51:00,
2013-10-11 22:56:00,54.9,36.6,29.91,WNW,284,0.0,1.0,50,0.00,,,0.00,0,WeatherCatV1.11B39,2013-10-12 05:56:00,
2013-10-11 23:01:00,54.5,36.7,29.91,WNW,284,1.0,1.0,51,0.00,,,0.00,0,WeatherCatV1.11B39,2013-10-12 06:01:00,
2013-10-11 23:06:00,54.4,36.7,29.91,WNW,284,1.0,1.0,51,0.00,,,0.00,0,WeatherCatV1.11B39,2013-10-12 06:06:00,
2013-10-11 23:11:00,54.6,36.8,29.91,WNW,284,0.0,1.0,51,0.00,,,0.00,0,WeatherCatV1.11B39,2013-10-12 06:11:00,
2013-10-11 23:16:00,54.6,36.8,29.90,WNW,284,0.0,1.0,51,0.00,,,0.00,0,WeatherCatV1.11B39,2013-10-12 06:16:00,
2013-10-11 23:21:00,54.5,36.7,29.90,WNW,284,0.0,0.0,51,0.00,,,0.00,0,WeatherCatV1.11B39,2013-10-12 06:21:00,
2013-10-11 23:26:00,54.5,36.7,29.90,WNW,284,0.0,1.0,51,0.00,,,0.00,0,WeatherCatV1.11B39,2013-10-12 06:26:00,
2013-10-11 23:31:00,54.5,36.7,29.90,WNW,284,0.0,1.0,51,0.00,,,0.00,0,WeatherCatV1.11B39,2013-10-12 06:31:00,
2013-10-11 23:36:00,54.1,36.4,29.90,WNW,284,0.0,0.0,51,0.00,,,0.00,0,WeatherCatV1.11B39,2013-10-12 06:36:00,
2013-10-11 23:41:00,53.6,36.9,29.90,WNW,284,0.0,1.0,53,0.00,,,0.00,0,WeatherCatV1.11B39,2013-10-12 06:41:00,
2013-10-11 23:46:00,53.4,36.7,29.90,WNW,284,1.0,2.0,53,0.00,,,0.00,0,WeatherCatV1.11B39,2013-10-12 06:46:00,
2013-10-11 23:51:00,53.4,36.7,29.91,WNW,284,1.0,1.0,53,0.00,,,0.00,0,WeatherCatV1.11B39,2013-10-12 06:51:00,
2013-10-11 23:56:00,53.2,37.0,29.91,WNW,284,0.0,1.0,54,0.00,,,0.00,0,WeatherCatV1.11B39,2013-10-12 06:56:00,